This is the latest recevied weather packets stored in our database for station/object K7CTM. If no packets are shown the sender has not sent any weather packets the latest 10 day(s).
| Time | Temp. | Humidity | Pressure | Rain* | Wind** | Luminosity | Snow |
|---|---|---|---|---|---|---|---|
| 1778106540 | 18.89° C | 22% | 1020.3 hPa | 0 mm | - | 559 W/m² | - |
| 1778106235 | 18.89° C | 23% | 1020.4 hPa | 0 mm | - | 572 W/m² | - |
| 1778105933 | 18.89° C | 24% | 1020.6 hPa | 0 mm | - | 586 W/m² | - |
| 1778105630 | 18.89° C | 25% | 1020.7 hPa | 0 mm | - | 594 W/m² | - |
| 1778105328 | 18.89° C | 24% | 1021 hPa | 0 mm | - | 609 W/m² | - |
| 1778105023 | 18.33° C | 25% | 1020.8 hPa | 0 mm | - | 623 W/m² | - |
| 1778104720 | 18.33° C | 25% | 1021.3 hPa | 0 mm | - | 635 W/m² | - |
| 1778104416 | 18.33° C | 24% | 1021.2 hPa | 0 mm | - | 647 W/m² | - |
| 1778104112 | 18.33° C | 23% | 1021.2 hPa | 0 mm | - | 650 W/m² | - |
| 1778103809 | 18.33° C | 25% | 1021.4 hPa | 0 mm | - | 667 W/m² | - |
| 1778103508 | 17.78° C | 24% | 1021.6 hPa | 0 mm | - | 682 W/m² | - |
| 1778103204 | 17.78° C | 23% | 1021.8 hPa | 0 mm | - | 688 W/m² | - |
| 1778102902 | 17.78° C | 24% | 1021.6 hPa | 0 mm | - | 690 W/m² | - |
| 1778102597 | 17.22° C | 24% | 1021.8 hPa | 0 mm | - | 703 W/m² | - |
| 1778102292 | 17.78° C | 24% | 1021.9 hPa | 0 mm | - | 712 W/m² | - |
| 1778101989 | 16.67° C | 23% | 1022 hPa | 0 mm | - | 721 W/m² | - |
| 1778101687 | 17.22° C | 24% | 1022 hPa | 0 mm | - | 729 W/m² | - |
| 1778101383 | 17.22° C | 23% | 1022.1 hPa | 0 mm | - | 739 W/m² | - |
| 1778101080 | 17.78° C | 25% | 1022 hPa | 0 mm | - | 747 W/m² | - |
| 1778100776 | 16.67° C | 24% | 1022 hPa | 0 mm | - | 755 W/m² | - |
| 1778100472 | 17.22° C | 25% | 1022.2 hPa | 0 mm | - | 762 W/m² | - |
| 1778100170 | 16.67° C | 23% | 1022.2 hPa | 0 mm | - | 769 W/m² | - |
| 1778099868 | 16.67° C | 27% | 1022.3 hPa | 0 mm | - | 779 W/m² | - |
| 1778099565 | 16.67° C | 25% | 1022.3 hPa | 0 mm | - | 792 W/m² | - |
| 1778099262 | 15.56° C | 24% | 1022.5 hPa | 0 mm | - | 813 W/m² | - |
* Rain latest hour (hover to see other rain measurements)
** Current wind speed in m/s (hover to see current wind gust speed)